When you browse on this site, cookies collect data to enhance your experience and personalize the content and advertising you see.
Visit our Privacy Policy to learn more. By continuing to use the site, you agree to this use of cookies and data.
  • In Romania
  • List of Countries
  • For 7 days
  • Water Temperature
  • Weather Map
  • Weather Widgets
  • user-avatar
    Login

    Hourly Weather Djelfa

    Today, 3 June, Wednesday

    Time Temperature Precipitation Wind Pressure Humidity
    00:00 +23°C° 0 mm 1 mps 664 mmHg 43%
    01:00 +23°C° 0 mm 1 mps 664 mmHg 44%
    02:00 +23°C° 0 mm 2 mps 663 mmHg 45%
    03:00 +21°C° 0 mm 2 mps 663 mmHg 45%
    04:00 +23°C° 0 mm 2 mps 663 mmHg 45%
    05:00 +23°C° 0 mm 2 mps 664 mmHg 45%
    06:00 +24°C° 0 mm 2 mps 664 mmHg 46%
    07:00 +25°C° 0 mm 3 mps 664 mmHg 41%
    08:00 +27°C° 0 mm 4 mps 664 mmHg 36%
    09:00 +28°C° 0 mm 4 mps 665 mmHg 32%
    10:00 +29°C° 0 mm 4 mps 665 mmHg 27%
    11:00 +30°C° 0 mm 4 mps 664 mmHg 22%
    12:00 +31°C° 0 mm 3 mps 664 mmHg 19%
    13:00 +33°C° 0 mm 4 mps 664 mmHg 18%
    14:00 +33°C° 0 mm 5 mps 663 mmHg 18%
    15:00 +33°C° 0 mm 5 mps 663 mmHg 17%
    16:00 +33°C° 0 mm 5 mps 663 mmHg 18%
    17:00 +32°C° 0 mm 6 mps 663 mmHg 19%
    18:00 +30°C° 0 mm 6 mps 663 mmHg 19%
    19:00 +29°C° 0 mm 6 mps 663 mmHg 23%
    20:00 +27°C° 0 mm 6 mps 663 mmHg 26%
    21:00 +25°C° 0 mm 5 mps 663 mmHg 29%
    22:00 +25°C° 0 mm 4 mps 662 mmHg 33%
    23:00 +24°C° 0 mm 2 mps 662 mmHg 36%

    Tomorrow, 4 June, Thursday

    Time Temperature Precipitation Wind Pressure Humidity
    00:00 +21°C° 0 mm 0 mps 662 mmHg 39%
    01:00 +23°C° 0 mm 1 mps 662 mmHg 39%
    02:00 +22°C° 0 mm 1 mps 661 mmHg 38%
    03:00 +22°C° 0 mm 1 mps 661 mmHg 38%
    04:00 +21°C° 0 mm 2 mps 661 mmHg 37%
    05:00 +22°C° 0 mm 3 mps 661 mmHg 35%
    06:00 +22°C° 0 mm 4 mps 662 mmHg 34%
    07:00 +23°C° 0 mm 4 mps 662 mmHg 31%
    08:00 +25°C° 0 mm 5 mps 662 mmHg 28%
    09:00 +26°C° 0 mm 6 mps 663 mmHg 25%
    10:00 +27°C° 0 mm 5 mps 663 mmHg 24%
    11:00 +28°C° 0 mm 5 mps 662 mmHg 22%
    12:00 +29°C° 0 mm 5 mps 662 mmHg 20%
    13:00 +29°C° 0 mm 5 mps 662 mmHg 19%
    14:00 +30°C° 0 mm 6 mps 662 mmHg 18%
    15:00 +30°C° 0 mm 6 mps 662 mmHg 17%
    16:00 +29°C° 0 mm 8 mps 662 mmHg 21%
    17:00 +27°C° 0 mm 9 mps 661 mmHg 24%
    18:00 +26°C° 0 mm 10 mps 661 mmHg 28%
    19:00 +23°C° 0 mm 11 mps 661 mmHg 33%
    20:00 +22°C° 0 mm 12 mps 662 mmHg 38%
    21:00 +19°C° 0 mm 12 mps 662 mmHg 43%
    22:00 +18°C° 0 mm 12 mps 662 mmHg 48%
    23:00 +17°C° 0 mm 11 mps 662 mmHg 54%

    Day after tomorrow, 5 June, Friday

    Time Temperature Precipitation Wind Pressure Humidity
    00:00 +17°C° 0 mm 10 mps 662 mmHg 60%
    01:00 +16°C° 0 mm 10 mps 662 mmHg 63%
    02:00 +16°C° 0 mm 9 mps 661 mmHg 66%
    03:00 +15°C° 0 mm 9 mps 661 mmHg 68%
    04:00 +15°C° 0 mm 9 mps 661 mmHg 71%
    05:00 +15°C° 0 mm 9 mps 662 mmHg 73%
    06:00 +15°C° 0 mm 9 mps 662 mmHg 75%
    07:00 +17°C° 0 mm 9 mps 662 mmHg 67%
    08:00 +18°C° 0 mm 9 mps 663 mmHg 59%
    09:00 +19°C° 0 mm 9 mps 664 mmHg 51%
    10:00 +22°C° 0 mm 9 mps 664 mmHg 45%
    11:00 +23°C° 0 mm 8 mps 664 mmHg 40%
    12:00 +24°C° 0 mm 8 mps 665 mmHg 34%
    13:00 +26°C° 0 mm 8 mps 665 mmHg 32%
    14:00 +26°C° 0 mm 7 mps 665 mmHg 29%
    15:00 +27°C° 0 mm 7 mps 665 mmHg 26%
    16:00 +26°C° 0 mm 7 mps 664 mmHg 26%
    17:00 +26°C° 0 mm 6 mps 664 mmHg 26%
    18:00 +26°C° 0 mm 6 mps 664 mmHg 26%
    19:00 +23°C° 0 mm 5 mps 665 mmHg 30%
    20:00 +22°C° 0 mm 4 mps 665 mmHg 34%
    21:00 +21°C° 0 mm 3 mps 666 mmHg 39%
    22:00 +21°C° 0 mm 3 mps 665 mmHg 42%
    23:00 +20°C° 0 mm 3 mps 665 mmHg 46%

    6 June, Saturday

    Time Temperature Precipitation Wind Pressure Humidity
    00:00 +19°C° 0 mm 3 mps 665 mmHg 50%
    01:00 +19°C° 0 mm 2 mps 665 mmHg 51%
    02:00 +18°C° 0 mm 2 mps 665 mmHg 52%
    03:00 +19°C° 0 mm 1 mps 664 mmHg 53%
    04:00 +20°C° 0 mm 1 mps 665 mmHg 49%
    05:00 +20°C° 0 mm 1 mps 665 mmHg 45%
    06:00 +21°C° 0 mm 1 mps 666 mmHg 41%
    07:00 +23°C° 0 mm 2 mps 666 mmHg 37%
    08:00 +25°C° 0 mm 3 mps 667 mmHg 32%
    09:00 +27°C° 0 mm 4 mps 667 mmHg 27%
    10:00 +28°C° 0 mm 5 mps 667 mmHg 25%
    11:00 +30°C° 0 mm 6 mps 667 mmHg 22%
    12:00 +32°C° 0 mm 6 mps 667 mmHg 19%
    13:00 +33°C° 0 mm 6 mps 667 mmHg 18%
    14:00 +33°C° 0 mm 6 mps 667 mmHg 17%
    15:00 +34°C° 0 mm 6 mps 666 mmHg 16%
    16:00 +33°C° 0 mm 6 mps 666 mmHg 17%
    17:00 +33°C° 0 mm 5 mps 665 mmHg 18%
    18:00 +32°C° 0 mm 5 mps 665 mmHg 18%
    19:00 +30°C° 0 mm 4 mps 665 mmHg 21%
    20:00 +29°C° 0 mm 3 mps 665 mmHg 23%
    21:00 +28°C° 0 mm 2 mps 665 mmHg 25%
    22:00 +27°C° 0 mm 2 mps 665 mmHg 27%
    23:00 +26°C° 0 mm 2 mps 664 mmHg 28%

    7 June, Sunday

    Time Temperature Precipitation Wind Pressure Humidity
    00:00 +25°C° 0 mm 3 mps 664 mmHg 30%
    01:00 +25°C° 0 mm 3 mps 664 mmHg 30%
    02:00 +25°C° 0 mm 3 mps 663 mmHg 30%
    03:00 +24°C° 0 mm 3 mps 663 mmHg 31%
    04:00 +25°C° 0 mm 3 mps 663 mmHg 31%
    05:00 +25°C° 0 mm 3 mps 663 mmHg 31%
    06:00 +25°C° 0 mm 2 mps 664 mmHg 32%
    07:00 +26°C° 0 mm 4 mps 664 mmHg 30%
    08:00 +27°C° 0 mm 5 mps 664 mmHg 29%
    09:00 +28°C° 0 mm 7 mps 665 mmHg 28%
    10:00 +28°C° 0 mm 6 mps 664 mmHg 27%
    11:00 +29°C° 0 mm 5 mps 664 mmHg 27%
    12:00 +29°C° 0 mm 5 mps 664 mmHg 26%
    13:00 +30°C° 0 mm 5 mps 664 mmHg 26%
    14:00 +30°C° 0 mm 6 mps 664 mmHg 26%
    15:00 +30°C° 0 mm 6 mps 663 mmHg 26%
    16:00 +29°C° 0 mm 7 mps 663 mmHg 29%
    17:00 +28°C° 0 mm 8 mps 663 mmHg 31%
    18:00 +27°C° 0 mm 8 mps 663 mmHg 34%
    19:00 +26°C° 0 mm 8 mps 664 mmHg 35%
    20:00 +24°C° 0 mm 9 mps 664 mmHg 37%
    21:00 +22°C° 0 mm 9 mps 664 mmHg 39%
    22:00 +22°C° 0 mm 8 mps 664 mmHg 41%
    23:00 +21°C° 0 mm 7 mps 664 mmHg 44%

    8 June, Monday

    Time Temperature Precipitation Wind Pressure Humidity
    00:00 +20°C° 0 mm 6 mps 664 mmHg 46%
    01:00 +20°C° 0 mm 6 mps 664 mmHg 48%
    02:00 +19°C° 0 mm 6 mps 663 mmHg 49%
    03:00 +19°C° 0 mm 5 mps 663 mmHg 50%
    04:00 +19°C° 0 mm 6 mps 663 mmHg 49%
    05:00 +18°C° 0 mm 7 mps 663 mmHg 47%
    06:00 +18°C° 0 mm 7 mps 663 mmHg 46%
    07:00 +20°C° 0 mm 7 mps 664 mmHg 42%
    08:00 +21°C° 0 mm 7 mps 664 mmHg 38%
    09:00 +23°C° 0 mm 6 mps 664 mmHg 34%
    10:00 +24°C° 0 mm 6 mps 664 mmHg 32%
    11:00 +26°C° 0 mm 6 mps 664 mmHg 29%
    12:00 +27°C° 0 mm 5 mps 665 mmHg 27%
    13:00 +28°C° 0 mm 5 mps 664 mmHg 26%
    14:00 +28°C° 0 mm 4 mps 664 mmHg 26%
    15:00 +29°C° 0 mm 4 mps 664 mmHg 25%
    16:00 +28°C° 0 mm 4 mps 664 mmHg 26%
    17:00 +28°C° 0 mm 5 mps 664 mmHg 26%
    18:00 +28°C° 0 mm 6 mps 664 mmHg 27%
    19:00 +26°C° 0 mm 6 mps 664 mmHg 33%
    20:00 +24°C° 0 mm 7 mps 664 mmHg 39%
    21:00 +22°C° 0 mm 8 mps 664 mmHg 45%
    22:00 +21°C° 0 mm 7 mps 664 mmHg 50%
    23:00 +21°C° 0 mm 6 mps 664 mmHg 54%
    Show more